Date String (YYYY-MM-DD hh:mm:ss) UTC,Instrument flags,absolute air pressure of the measurement (hPa),sample flow rate (lpm),inlet stack bypass flow (lpm),air temperature of the measurement (°C),ambient temperature measured by the external sensor (°C),aerosol sample conditioner tube jacket temperature (°C),OPC LED temperature (°C),internal box temperature (°C),relative humidity of the measurement (%),span deviation,mass concentration of particles derived from Lorenz-Mie calculation of OPC scattering (μg/m³),mass concentration of particles derived from Lorenz-Mie calculation of OPC scattering (μg/m³),mass concentration of particles derived from Lorenz-Mie calculation of OPC scattering (μg/m³)
DateTimeUTC,F1_M11,P_M11,Q1_M11,Q2_M11,T1_M11,T2_M11,T3_M11,T4_M11,T5_M11,U1_M11,ZSPAN_M11,X0_M11,X2_M11,X1_M11
2024-03-23 14:00:00,SystemResetWarning,0824.7,5.01,000.00,020.1,019.4,000.0,028.7,021.9,20.0,0000.0,0016.98,0004.79,0003.11
2024-03-23 14:01:00,SystemResetWarning,0824.7,5.00,000.00,020.1,019.4,000.0,028.7,021.9,20.0,0000.0,0017.89,0004.79,0003.12
2024-03-23 14:02:00,SystemResetWarning,0824.7,4.99,000.00,020.1,019.4,000.0,028.7,021.9,20.1,0000.0,0017.86,0004.80,0003.14
2024-03-23 14:03:00,SystemResetWarning,0824.7,5.00,000.00,020.1,019.4,000.0,028.7,021.9,20.1,0000.0,0018.34,0004.83,0003.15
2024-03-23 14:04:00,SystemResetWarning,0824.6,5.00,000.00,020.1,019.4,000.0,028.7,021.9,20.1,0000.0,0017.52,0004.80,0003.16
2024-03-23 14:05:00,SystemResetWarning,0824.4,4.99,000.00,020.1,019.3,000.0,028.7,021.9,20.1,0000.0,0017.52,0004.79,0003.18
2024-03-23 14:06:00,SystemResetWarning,0824.4,4.99,000.00,020.1,019.3,000.0,028.7,021.9,20.1,0000.0,0018.47,0004.80,0003.20
2024-03-23 14:07:00,SystemResetWarning,0824.4,5.01,000.00,020.0,019.3,000.0,028.7,021.9,20.0,0000.0,0017.61,0004.78,0003.21
2024-03-23 14:08:00,SystemResetWarning,0824.5,5.01,000.00,020.0,019.3,000.0,028.7,021.9,20.1,0000.0,0018.33,0004.87,0003.22
2024-03-23 14:09:00,SystemResetWarning,0824.5,5.00,000.00,020.0,019.3,000.0,028.7,021.9,20.3,0000.0,0018.89,0004.93,0003.23
2024-03-23 14:10:00,SystemResetWarning,0824.6,4.99,000.00,020.0,019.3,000.0,028.7,021.9,20.5,0000.0,0020.89,0004.93,0003.23
2024-03-23 14:11:00,SystemResetWarning,0824.5,5.00,000.00,020.0,019.3,000.0,028.7,021.9,20.7,0000.0,0021.02,0004.86,0003.22
2024-03-23 14:12:00,SystemResetWarning,0824.5,4.99,000.00,020.0,019.3,000.0,028.7,021.9,20.8,0000.0,0019.41,0004.84,0003.23
2024-03-23 14:13:00,SystemResetWarning,0824.7,5.00,000.00,020.0,019.4,000.0,028.7,021.9,21.0,0000.0,0020.18,0004.82,0003.23
2024-03-23 14:14:00,SystemResetWarning,0824.7,4.99,000.00,020.0,019.3,000.0,028.7,021.9,20.9,0000.0,0021.42,0004.83,0003.23
2024-03-23 14:15:00,SystemResetWarning,0824.7,5.00,000.00,020.0,019.4,000.0,028.7,021.9,21.2,0000.0,0022.23,0004.89,0003.23
2024-03-23 14:16:00,SystemResetWarning,0824.7,5.01,000.00,020.0,019.4,000.0,028.6,021.9,21.4,0000.0,0022.89,0004.95,0003.21
2024-03-23 14:17:00,SystemResetWarning,0824.6,5.01,000.00,020.0,019.4,000.0,028.6,021.9,21.2,0000.0,0021.82,0004.90,0003.20
2024-03-23 14:18:00,SystemResetWarning,0824.5,5.00,000.00,020.0,019.4,000.0,028.6,021.9,21.1,0000.0,0021.82,0004.91,0003.20
2024-03-23 14:19:00,SystemResetWarning,0824.5,4.99,000.00,020.0,019.3,000.0,028.6,021.9,21.1,0000.0,0021.33,0004.88,0003.21
2024-03-23 14:20:00,SystemResetWarning,0824.5,4.99,000.00,020.0,019.3,000.0,028.6,021.8,20.9,0000.0,0021.07,0004.88,0003.20
2024-03-23 14:21:00,SystemResetWarning,0824.6,5.00,000.00,020.0,019.2,000.0,028.6,021.8,20.7,0000.0,0019.49,0004.88,0003.21
2024-03-23 14:22:00,SystemResetWarning,0824.6,5.01,000.00,020.0,019.2,000.0,028.6,021.8,20.9,0000.0,0019.82,0004.95,0003.22
2024-03-23 14:23:00,SystemResetWarning,0824.6,5.01,000.00,020.0,019.2,000.0,028.6,021.8,21.1,0000.0,0021.16,0004.95,0003.23
2024-03-23 14:24:00,SystemResetWarning,0824.5,5.01,000.00,020.0,019.2,000.0,028.6,021.8,21.3,0000.0,0020.66,0004.94,0003.24
2024-03-23 14:25:00,SystemResetWarning,0824.4,5.00,000.00,019.9,019.2,000.0,028.6,021.8,21.1,0000.0,0018.97,0004.90,0003.25
2024-03-23 14:26:00,SystemResetWarning,0824.4,5.00,000.00,019.9,019.2,000.0,028.6,021.7,20.8,0000.0,0018.17,0004.90,0003.26
2024-03-23 14:27:00,SystemResetWarning,0824.4,4.99,000.00,019.9,019.1,000.0,028.6,021.7,20.7,0000.0,0017.81,0004.86,0003.28
2024-03-23 14:28:00,SystemResetWarning,0824.4,5.00,000.00,019.9,019.1,000.0,028.6,021.7,20.8,0000.0,0018.11,0004.92,0003.29
2024-03-23 14:29:00,SystemResetWarning,0824.4,5.03,000.00,019.9,019.0,000.0,028.6,021.7,21.1,0000.0,0018.51,0004.94,0003.29
2024-03-23 14:30:00,SystemResetWarning,0824.4,4.99,000.00,019.9,019.0,000.0,028.6,021.7,21.2,0000.0,0017.66,0004.87,0003.29
2024-03-23 14:31:00,SystemResetWarning,0824.4,4.99,000.00,019.9,019.1,000.0,028.6,021.7,21.2,0000.0,0017.71,0004.87,0003.31
2024-03-23 14:32:00,SystemResetWarning,0824.4,5.01,000.00,019.9,019.1,000.0,028.6,021.7,21.2,0000.0,0018.74,0004.94,0003.33
2024-03-23 14:33:00,SystemResetWarning,0824.4,5.01,000.00,019.9,019.1,000.0,028.5,021.7,21.1,0000.0,0018.12,0004.90,0003.34
2024-03-23 14:34:00,SystemResetWarning,0824.4,5.00,000.00,019.9,019.2,000.0,028.5,021.7,21.2,0000.0,0017.74,0004.91,0003.34
2024-03-23 14:35:00,SystemResetWarning,0824.3,5.00,000.00,019.9,019.2,000.0,028.5,021.7,21.1,0000.0,0018.95,0004.98,0003.35
2024-03-23 14:36:00,SystemResetWarning,0824.4,5.00,000.00,019.9,019.2,000.0,028.5,021.7,21.1,0000.0,0019.00,0005.05,0003.36
2024-03-23 14:37:00,SystemResetWarning,0824.4,4.99,000.00,019.9,019.2,000.0,028.5,021.7,21.1,0000.0,0019.54,0005.08,0003.37
2024-03-23 14:38:00,SystemResetWarning,0824.4,5.00,000.00,019.9,019.2,000.0,028.5,021.7,21.3,0000.0,0020.07,0005.11,0003.38
2024-03-23 14:39:00,SystemResetWarning,0824.3,5.00,000.00,019.9,019.2,000.0,028.5,021.7,21.4,0000.0,0020.62,0005.10,0003.40
2024-03-23 14:40:00,SystemResetWarning,0824.3,5.00,000.00,019.9,019.2,000.0,028.5,021.7,21.4,0000.0,0020.79,0005.07,0003.43
2024-03-23 14:41:00,SystemResetWarning,0824.3,5.00,000.00,019.9,019.2,000.0,028.5,021.7,21.4,0000.0,0021.55,0005.15,0003.45
2024-03-23 14:42:00,SystemResetWarning,0824.3,5.00,000.00,019.9,019.2,000.0,028.5,021.7,21.3,0000.0,0020.76,0005.18,0003.45
2024-03-23 14:43:00,SystemResetWarning,0824.3,5.00,000.00,019.9,019.2,000.0,028.5,021.7,21.3,0000.0,0019.89,0005.16,0003.45
2024-03-23 14:44:00,SystemResetWarning,0824.3,5.01,000.00,019.9,019.2,000.0,028.5,021.7,21.2,0000.0,0019.48,0005.16,0003.46
2024-03-23 14:45:00,SystemResetWarning,0824.3,5.00,000.00,019.9,019.2,000.0,028.5,021.7,21.4,0000.0,0018.65,0005.21,0003.47
2024-03-23 14:46:00,SystemResetWarning,0824.3,5.00,000.00,019.9,019.2,000.0,028.5,021.7,21.4,0000.0,0016.51,0005.14,0003.47
2024-03-23 14:47:00,SystemResetWarning,0824.3,5.00,000.00,019.9,019.2,000.0,028.5,021.7,21.5,0000.0,0016.64,0005.11,0003.47
2024-03-23 14:48:00,SystemResetWarning,0824.3,4.99,000.00,019.9,019.2,000.0,028.5,021.7,21.3,0000.0,0016.36,0005.05,0003.47
2024-03-23 14:49:00,SystemResetWarning,0824.3,5.00,000.00,019.9,019.2,000.0,028.5,021.7,21.3,0000.0,0015.08,0004.99,0003.47
2024-03-23 14:50:00,SystemResetWarning,0824.3,4.99,000.00,019.9,019.2,000.0,028.5,021.7,21.3,0000.0,0014.31,0004.93,0003.46
2024-03-23 14:51:00,SystemResetWarning,0824.2,5.00,000.00,019.9,019.2,000.0,028.5,021.7,21.3,0000.0,0014.60,0004.92,0003.46
2024-03-23 14:52:00,SystemResetWarning,0824.2,5.01,000.00,019.9,019.3,000.0,028.5,021.7,21.2,0000.0,0014.30,0004.93,0003.46
2024-03-23 14:53:00,SystemResetWarning,0824.2,5.00,000.00,019.9,019.3,000.0,028.5,021.7,21.3,0000.0,0014.37,0004.90,0003.45
2024-03-23 14:54:00,SystemResetWarning,0824.1,5.00,000.00,019.9,019.3,000.0,028.5,021.7,21.2,0000.0,0014.93,0004.92,0003.44
2024-03-23 14:55:00,SystemResetWarning,0824.2,5.00,000.00,019.9,019.3,000.0,028.5,021.7,21.4,0000.0,0014.91,0004.94,0003.44
2024-03-23 14:56:00,SystemResetWarning,0824.2,4.99,000.00,019.9,019.3,000.0,028.5,021.8,21.6,0000.0,0014.88,0004.91,0003.45
2024-03-23 14:57:00,SystemResetWarning,0824.2,5.00,000.00,019.9,019.3,000.0,028.5,021.8,21.6,0000.0,0015.08,0004.98,0003.48
2024-03-23 14:58:00,SystemResetWarning,0824.2,5.01,000.00,019.9,019.3,000.0,028.5,021.8,21.7,0000.0,0014.30,0004.95,0003.49
2024-03-23 14:59:00,SystemResetWarning,0824.3,5.00,000.00,019.9,019.4,000.0,028.5,021.8,21.6,0000.0,0014.71,0004.98,0003.51
